Home   Weather   Görlitz   Past weeks

Flag for Germany Past Weather in Görlitz, Saxony, Germany — Yesterday and Last 2 Weeks

Now
49 °F

Partly sunny.


Feels Like: 47 °F
Forecast: 37 / 49 °F
Wind: 5 mph from South

Location: Liberec

Current Time: Apr 25, 2017 at 10:57:32 am

Latest Report: Apr 25, 2017 at 9:00 am


Visibility: 17 mi

Pressure: 29.67 "Hg

Humidity: 51%

Dew Point: 31 °F

Location of GörlitzLocation

Past Weather in Görlitz — Graph

°F

Görlitz Temperature Yesterday

Maximum temperature yesterday: 53 °F (at 4:00 pm)
Minimum temperature yesterday: 32 °F (at 6:00 am)
Average temperature yesterday: 43 °F

High & Low Weather Summary for the Past Weeks

 TemperatureHumidityPressure
High69 °F (Apr 10, 4:00 pm)98% (Apr 18, 4:00 am)30.53 "Hg (Apr 18, 4:00 am)
Low25 °F (Apr 21, 6:00 am)31% (Apr 20, 4:00 pm)29.67 "Hg (Apr 25, 9:00 am)
Average42 °F67%30.09 "Hg
* Reported Apr 10 9:00 am — Apr 25 9:00 am, Görlitz, Weather by CustomWeather, © 2017

Note: Actual official high and low records may vary slightly from our data, if they occured in-between our weather recording intervals... More about our weather records

Advertising

Görlitz Weather History for the Previous 24 Hours

Scroll right to see more
 ConditionsComfort  
Time TempWeatherWind HumidityBarometerVisibility
9:00 am
Tue, Apr 25
49 °FPartly sunny.5 mph51%29.67 "Hg17 mi
8:00 am46 °FPartly sunny.5 mph54%29.67 "Hg17 mi
7:00 am43 °FQuite cool.2 mph62%29.68 "Hg12 mi
6:00 am42 °FQuite cool.5 mph66%29.70 "Hg12 mi
5:00 am42 °FQuite cool.5 mph67%29.71 "Hg12 mi
4:00 am43 °FQuite cool.5 mph64%29.73 "Hg12 mi
3:00 am43 °FQuite cool.3 mph63%29.76 "Hg12 mi
2:00 am43 °FQuite cool.5 mph65%29.78 "Hg12 mi
1:00 am45 °FCool.3 mph57%29.80 "Hg12 mi
12:00 am46 °FCool.3 mph57%29.82 "Hg12 mi
11:00 pm
Mon, Apr 24
45 °FCool.3 mph57%29.84 "Hg12 mi
9:00 pm47 °FPassing clouds.3 mph53%29.87 "Hg19 mi
8:00 pm50 °FPassing clouds.2 mph45%29.86 "Hg22 mi
7:00 pm52 °FCool.5 mph39%29.88 "Hg12 mi
6:00 pm52 °FCool.6 mph38%29.89 "Hg12 mi
5:00 pm52 °FScattered clouds.6 mph37%29.92 "Hg25 mi
4:00 pm53 °FScattered clouds.6 mph38%29.93 "Hg25 mi
3:00 pm52 °FPartly sunny.6 mph39%29.97 "Hg25 mi
2:00 pm50 °FPartly sunny.6 mph42%30.00 "Hg25 mi
1:00 pm48 °FScattered clouds.6 mph41%30.02 "Hg25 mi
12:00 pm48 °FScattered clouds.3 mph42%30.06 "Hg25 mi
11:00 am43 °FScattered clouds.3 mph47%30.10 "Hg25 mi
10:00 am41 °FScattered clouds.3 mph51%30.12 "Hg25 mi
Weather by CustomWeather, © 2017

See weather overviewHow to use our weather pages